Location: Newark
(49.8348°N, 24.0280°E)
Time: 02:44:11
(UTC+00:00)

Courier 1B Rocket - All Passes

Search period start: 26 January 2020 00:00
Search period end: 05 February 2020 00:00
Orbit: 920 x 1202 km, 28.2° (Epoch: 25 January)

Date Brightness Start Highest point End Pass type
(mag) Time Alt. Az. Time Alt. Az. Time Alt. Az.
26 Jan - 11:52:44 10° SSW 11:53:58 10° S 11:55:11 10° S daylight
27 Jan - 10:51:27 10° SSW 10:53:21 11° S 10:55:14 10° SSE daylight
28 Jan - 09:50:48 10° S 09:52:43 11° S 09:54:35 10° SSE daylight
28 Jan - 11:44:09 10° SSW 11:44:41 10° S 11:45:13 10° S daylight
29 Jan - 08:51:01 10° S 08:52:02 10° S 08:53:04 10° SSE daylight
29 Jan - 10:41:53 10° SSW 10:44:04 11° S 10:46:14 10° SSE daylight
30 Jan - 09:40:44 10° SSW 09:43:25 12° S 09:46:02 10° SSE daylight
31 Jan - 08:40:03 10° SSW 08:42:43 12° S 08:45:20 10° SSE daylight
31 Jan - 10:32:54 10° SSW 10:34:46 11° S 10:36:35 10° S daylight
01 Feb - 07:39:58 10° S 07:42:00 11° S 07:44:03 10° SSE daylight
01 Feb - 09:31:14 10° SSW 09:34:06 12° S 09:36:54 10° SSE daylight
02 Feb - 08:30:11 10° SSW 08:33:23 13° S 08:36:33 10° SSE daylight
03 Feb - 07:29:32 10° SSW 07:32:40 13° S 07:35:45 10° SSE daylight
03 Feb - 09:22:14 10° SSW 09:24:45 12° S 09:27:14 10° S daylight
04 Feb - 06:29:26 10° S 06:31:55 12° S 06:34:25 10° SSE daylight
04 Feb - 08:20:46 10° SSW 08:24:03 13° S 08:27:17 10° SSE daylight
